DECAYED
Showing default

LACE-2, 59119 (Decayed)

Orbit data source: Space-Track

LACE-2, 59119 was a payload satellite owned by NIWC Pacific (US) in LEO that was launched on Mon, 04 Mar 2024 UTC via an FALCON 9 launch vehicle from the Air Force Western Test Range (AFWTR). Payload-class satellites include a variety of spacecraft equipped with specific instruments for various scientific and technological missions. These include communications satellites like Starlink; space stations such as the ISS; scientific satellites like the Hubble; Earth observation satellites from companies like Planet Labs, Umbra, and HawkEye 360; GPS; miniature CubeSats for education and research; and military/defense satellites.

Not visible in the next 10 days
Identifier
59119, 2024-043X
Orbit
Decayed
Country
Flag of USUS
Related business
Manufacturer
PUMPK/NIWCP
Mission
Decayed Defense Technology
Bus & Motor
CUBESAT 6U, Unknown motor
Mass
~10 kg wet, ~10 kg dry
Launch date (UTC)
2024-03-04 (2 years ago)
Launch vehicle
FALCON 9
Launch site
Air Force Western Test Range (AFWTR)
Object type
Payload
Rocket body
Debris
Shape & HBR
Box + 4 Pan, 0.1 m
Radar Cross Section
0.080 m², Medium (>0.1 m² and < 1m²)

Expand to show TLE details & history
Last TLE update: 11 months ago

TLE from 11 months ago
0 LACE-2
1 59119U 24043X   25151.53479507  .06945286  25490-5  10353-2 0  9991
2 59119  97.4539 291.4051 0014234 267.5934  92.3732 16.34129554 69568
Epoch: 2025-05-31T12:50Z
TLE epoch observation values (Epoch: 2025-05-31T12:50:06.294Z)
Latitude
-0.00005°
Longitude
-150.39491°
Altitude
185.107 km
Speed
7.795 km/s
True Right ascension
19h 25m 37s
True Declination
0° 00' 00"
Sunlit
Object was in full shadow at epoch
Visualization orbit readout
Latitude
Unknown
Longitude
Unknown
Altitude
Unknown
Speed
Unknown
Apparent Right ascension
Unknown
Apparent Declination
Unknown
Sunlit
N/A
Visualization observer readout
Local Sidereal Time
01:24:21
Azimuth
Unknown
Elevation
Unknown
Doppler factor
Unknown
Orbital elements
Apogee altitude
187.615 km
Perigee altitude
168.951 km
Semi-major axis
6,556.42 km
Eccentricity
0.00142
Inclination
97.4539°
RAAN
291.4051°
Arg. of periapsis
267.5934°
True anomaly
92.53616°
Mean anomaly
92.3732°
Eccentric anomaly
92.45468°
Mean motion
4.0883 °/min
Orbital period
88.06 mins
BSTAR
0.0010353
Loading maneuver chart data...
Computing Atmospheric mass density...
Loading historical data...
Loading historical data...
Loading historical data...
Loading historical data...
Loading historical data...
Loading historical data...
Loading historical data...

Documentation

Showing up to 5 results
|